Starlink 11712

operational
NORAD ID: 64135 Int'l Des: 2025-111 Owner: SPXS Country: US Constellation: starlink
LEOCIRCULAR

About Starlink 11712

Description loading...

Live Position

Loading 3D Globe...

Upcoming Passes

Altitude History

Altitude vs Time

uPlot chart will show altitude changes over time

Two-Line Element Set

1 64135U 25111N 25353.56828099 .00174878 00000-0 13355-2 0 9998
2 64135 43.0007 97.1920 0001697 271.0703 88.9970 15.70882160 34035
Epoch: Dec 19, 2025 • Age: 13 hours

Current Status

Altitude 359.1 km
Velocity 7.70 km/s
Sub-Earth Point 38.65°N, 91.64°E
Launch Date May 24, 2025
Age 0.5 years
Type internet

Technical Details

Classification Payload
Mass 960.00 kg
Dry Mass 910.00 kg
Total Mass 960.00 kg
Length 0.30 m
Diameter 4.10 m
Span 29.00 m
Shape Box + pan
Manufacturer SPXS
Bus Type Starlink V2MD
Phase Status In Orbit
Owner/State SPXS/US

Large Constellations

Loading constellations...